Content
SEND FEEDBACK

Daily
Averages
Monthly
Summary
United States of America

BOUNTIFUL, UTAH


Home > North America > United States > Utah
Elevation: 6145 feet     Latitude: 40 37N     Longitude: 111 47W

WEATHER
 
SELECT A DAY
Number of Records: 355,433;   Date Range: 1/1/95 - 9/18/14
 
SHARE

PRINT THIS DATA

[ ← Previous Day ]
WEATHER ALMANAC - JULY 20, 2014
[ Next Day → ]
[ °C ]   °F
Weather ElementAverageHighLow
Temperature80.1 °F93 °F (1:53 pm)73 °F (2:53 am)
Dewpoint46 °F57.2 °F (5:22 pm)34 °F (1:53 am)
Humidity31.7 %53 % (9:14 pm)16 % (1:53 pm)
Barometer29.85 in30.01 in (7:15 pm)29.76 in (3:53 pm)
Wind Speed8.6 mph17.3 mph (9:53 pm)
Wind Gust24.2 mph (9:53 pm)
Weather ElementAverage
Visibility9.6 mi
Wind DirectionSSE (165.5 °)

Weather ElementTotal
Precipitation0.26 in
Cooling Degree Days18 (Base 65)
Growing Degree Days33 (Base 50)
Averaged from 29 records on July 20, 2014
WEATHER CONDITIONS BREAKOUT
WIND DIRECTION BREAKOUT
WEATHER BY HOUR - JULY 20, 2014
[ °C ]   °F
Local TimeTemperatureDewpointHumidityBarometerVisibilityWind DirectionWind SpeedGust SpeedPrecipitationEventsConditions
1:53 AM73.9 °F34.0 °F23 %29.78 in10.0 miSE (130°)6.9 mphClear
2:53 AM73.0 °F37.9 °F28 %29.78 in10.0 miESE (120°)9.2 mphPartly Cloudy
3:53 AM75.0 °F42.1 °F31 %29.78 in10.0 miSE (130°)9.2 mphScattered Clouds
4:53 AM73.0 °F37.0 °F27 %29.78 in10.0 miSSE (150°)9.2 mphScattered Clouds
5:53 AM73.9 °F37.0 °F26 %29.80 in10.0 miESE (110°)4.6 mphMostly Cloudy
6:53 AM73.9 °F41.0 °F30 %29.82 in10.0 miSE (130°)5.8 mphMostly Cloudy
7:53 AM77.0 °F45.0 °F32 %29.83 in10.0 miSSE (150°)5.8 mphMostly Cloudy
8:53 AM79.0 °F45.0 °F30 %29.84 in10.0 miCalmMostly Cloudy
9:53 AM82.0 °F44.1 °F26 %29.84 in10.0 miCalmMostly Cloudy
10:53 AM84.0 °F45.0 °F25 %29.84 in10.0 miSE (130°)4.6 mphMostly Cloudy
11:53 AM90.0 °F42.1 °F19 %29.83 in10.0 miSouth (170°)13.8 mphMostly Cloudy
12:53 PM91.9 °F42.1 °F18 %29.82 in10.0 miWNW (290°)6.9 mphScattered Clouds
1:53 PM93.0 °F41.0 °F16 %29.80 in10.0 miNNW (330°)13.8 mphScattered Clouds
2:53 PM91.9 °F39.0 °F16 %29.78 in10.0 miNW (320°)10.4 mph17.3 mphScattered Clouds
3:53 PM91.0 °F39.0 °F16 %29.76 in10.0 miNNW (340°)8.1 mph19.6 mphMostly Cloudy
4:41 PM89.1 °F41.0 °F19 %29.95 in10.0 miNE (50°)3.5 mph0.00 inThunderstormThunderstorm
5:09 PM78.1 °F55.0 °F45 %29.97 in3.0 miWNW (300°)11.5 mph0.13 inRain-ThunderstormLight Thunderstorms and Rain
5:22 PM80.6 °F57.2 °F45 %29.90 in7.0 miNorth (350°)10.4 mphMostly Cloudy
5:53 PM80.1 °F53.1 °F39 %29.79 inNE (40°)12.7 mph23.0 mph0.13 inMostly Cloudy
6:13 PM80.6 °F51.8 °F37 %30.00 in10.0 miNW (310°)12.7 mphThunderstormThunderstorm
6:53 PM81.0 °F51.1 °F35 %29.86 in10.0 miNNW (330°)9.2 mph0.00 inThunderstormThunderstorm
7:15 PM80.6 °F53.6 °F39 %30.01 in10.0 miWNW (300°)6.9 mphMostly Cloudy
7:53 PM79.0 °F52.0 °F39 %29.83 in10.0 miNNE (20°)6.9 mphScattered Clouds
8:53 PM75.9 °F52.0 °F43 %29.85 in10.0 miNNE (20°)6.9 mphMostly Cloudy
9:14 PM73.4 °F55.4 °F53 %30.01 in10.0 miSouth (190°)10.4 mphThunderstormThunderstorm
9:35 PM77.0 °F48.2 °F36 %29.98 in10.0 miEast (90°)12.7 mphMostly Cloudy
9:53 PM75.9 °F48.9 °F38 %29.81 in10.0 miSE (130°)17.3 mph24.2 mphMostly Cloudy
10:53 PM75.0 °F50.0 °F41 %29.81 in10.0 miSouth (170°)12.7 mphScattered Clouds
11:53 PM73.0 °F52.0 °F48 %29.80 in10.0 miNorthPartly Cloudy
Hourly data recorded from KSLC, located miles away from Bountiful, Utah







STORIES FROM OUR PARTNERS